"Pseudo-MPEC" for R000503

Created 2023 Oct 3 2:22:10 UT using Find_Orb

Click here for an explanation of pseudo-MPECs

 
 Astrometry: 
     R000503* C2023 09 13'73bpyo!D/AstrometrysX7('\redacted;Zl4L-u(6Es]GxH(i6Y16
     R000503  C2023 09 13k_5:`3IYE:MvPclick?e,EL'MbMNxHVA8GN;A;eTaYph0FhereaOY16
     R000503  C2023 09 13,-!4Zd;[di3fEU%G5-b0forH'e/a5QK69explanationBFU0?K;]Y16

Station data:
(Y16) ROCG, Campos dos Goytacazes  (S21.745263 W41.312060)  Brazil.  Observer
   C. H. Barreto. 0.25-m f/4.8 reflector + CCD.

Orbital elements:  R000503
   Perihelion 2023 Aug 3.41427 +/- 28.2 TT =  9:56:32 (JD 2460159.91427)
Epoch 2023 Sep 13.0 TT = JDT 2460200.5   Earth MOID: 0.0125      AutoNEOCP
M   7.33314348 +/- 38               (J2000 ecliptic)
n   0.18068278 +/- 0.35             Peri.   43.16628 +/- 70
a   3.09878557 +/- 4                Node   162.99372 +/- 57
e   0.9503477 +/- 0.236             Incl.   73.71833 +/- 28
P   5.45                   H 18.71  G  0.15   U 12.0  SR
q 0.15386181 +/- 0.369    Q 6.04370934 +/- 28.2
From 3 observations 2023 Sept. 13 (11.2 min); mean residual 0".23
Residuals in arcseconds: 
230913 Y16  .07-  .20-    230913 Y16  .16+  .43+    230913 Y16  .09-  .23-    

Ephemerides (geocentric):
Date (UTC) HH   RA             Dec           delta  r     elong  mag " sig PA
---- --------  ------------   ------------  ------ ------ -----  --- --------
2023 10 03 02  21 09 34.716   -37 27 16.88  .70096 1.4614 117.3 20.3  27d 129
2023 10 03 03  21 09 36.923   -37 26 59.14  .70210 1.4620 117.2 20.3  27d 129
2023 10 03 04  21 09 39.128   -37 26 41.41  .70325 1.4627 117.2 20.3  27d 129
2023 10 03 05  21 09 41.333   -37 26 23.70  .70439 1.4634 117.2 20.3  27d 129
2023 10 03 06  21 09 43.537   -37 26 05.99  .70554 1.4641 117.1 20.3  27d 129
2023 10 03 07  21 09 45.740   -37 25 48.29  .70668 1.4648 117.1 20.3  27d 129
2023 10 03 08  21 09 47.942   -37 25 30.61  .70783 1.4655 117.1 20.3  27d 129
2023 10 03 09  21 09 50.144   -37 25 12.94  .70897 1.4661 117.1 20.3  27d 129
2023 10 03 10  21 09 52.344   -37 24 55.27  .71012 1.4668 117.0 20.3  27d 129
2023 10 03 11  21 09 54.544   -37 24 37.62  .71127 1.4675 117.0 20.3  27d 129
2023 10 03 12  21 09 56.743   -37 24 19.98  .71241 1.4682 117.0 20.3  27d 129
2023 10 03 13  21 09 58.941   -37 24 02.35  .71356 1.4689 116.9 20.3  27d 129
2023 10 03 14  21 10 01.139   -37 23 44.73  .71470 1.4695 116.9 20.3  27d 129
2023 10 03 15  21 10 03.336   -37 23 27.12  .71585 1.4702 116.9 20.3  27d 129
2023 10 03 16  21 10 05.532   -37 23 09.52  .71700 1.4709 116.9 20.3  27d 129
2023 10 03 17  21 10 07.727   -37 22 51.93  .71814 1.4716 116.8 20.3  27d 129
2023 10 03 18  21 10 09.921   -37 22 34.35  .71929 1.4722 116.8 20.3  27d 129
2023 10 03 19  21 10 12.115   -37 22 16.78  .72043 1.4729 116.8 20.3  27d 129
2023 10 03 20  21 10 14.308   -37 21 59.22  .72158 1.4736 116.7 20.4  27d 129
2023 10 03 21  21 10 16.501   -37 21 41.67  .72273 1.4743 116.7 20.4  27d 129
2023 10 03 22  21 10 18.692   -37 21 24.13  .72387 1.4750 116.7 20.4  27d 129
2023 10 03 23  21 10 20.883   -37 21 06.60  .72502 1.4756 116.6 20.4  27d 129
2023 10 04 00  21 10 23.074   -37 20 49.08  .72617 1.4763 116.6 20.4  27d 130
2023 10 04 01  21 10 25.263   -37 20 31.57  .72731 1.4770 116.6 20.4  27d 130
2023 10 04 02  21 10 27.452   -37 20 14.07  .72846 1.4777 116.6 20.4  27d 130
2023 10 04 03  21 10 29.641   -37 19 56.58  .72961 1.4784 116.5 20.4  27d 130
2023 10 04 04  21 10 31.828   -37 19 39.10  .73075 1.4790 116.5 20.4  27d 130
2023 10 04 05  21 10 34.016   -37 19 21.63  .73190 1.4797 116.5 20.4  27d 130
2023 10 04 06  21 10 36.202   -37 19 04.17  .73305 1.4804 116.4 20.4  27d 130
2023 10 04 07  21 10 38.388   -37 18 46.71  .73419 1.4811 116.4 20.4  27d 130
2023 10 04 08  21 10 40.573   -37 18 29.27  .73534 1.4817 116.4 20.4  27d 130
2023 10 04 09  21 10 42.758   -37 18 11.83  .73649 1.4824 116.4 20.4  27d 130
2023 10 04 10  21 10 44.942   -37 17 54.41  .73764 1.4831 116.3 20.4  27d 130
2023 10 04 11  21 10 47.126   -37 17 36.99  .73878 1.4838 116.3 20.4  27d 130
2023 10 04 12  21 10 49.309   -37 17 19.58  .73993 1.4844 116.3 20.4  27d 130
2023 10 04 13  21 10 51.491   -37 17 02.18  .74108 1.4851 116.2 20.4  27d 130
2023 10 04 14  21 10 53.673   -37 16 44.79  .74222 1.4858 116.2 20.4  27d 130
2023 10 04 15  21 10 55.855   -37 16 27.41  .74337 1.4865 116.2 20.4  27d 130
2023 10 04 16  21 10 58.035   -37 16 10.04  .74452 1.4871 116.2 20.4  28d 130
2023 10 04 17  21 11 00.216   -37 15 52.68  .74567 1.4878 116.1 20.4  28d 130
2023 10 04 18  21 11 02.396   -37 15 35.32  .74681 1.4885 116.1 20.4  28d 130
2023 10 04 19  21 11 04.575   -37 15 17.97  .74796 1.4892 116.1 20.4  28d 130
2023 10 04 20  21 11 06.754   -37 15 00.64  .74911 1.4898 116.0 20.5  28d 130
2023 10 04 21  21 11 08.932   -37 14 43.31  .75026 1.4905 116.0 20.5  28d 130
2023 10 04 22  21 11 11.110   -37 14 25.98  .75141 1.4912 116.0 20.5  28d 130
2023 10 04 23  21 11 13.287   -37 14 08.67  .75255 1.4919 115.9 20.5  28d 130
2023 10 05 00  21 11 15.464   -37 13 51.36  .75370 1.4925 115.9 20.5  28d 130
2023 10 05 01  21 11 17.641   -37 13 34.07  .75485 1.4932 115.9 20.5  28d 130